FW9748 Weather Reports


time (UTC)temp
C
wind
direction
speed
KPH
gust
KPH
rain 1hr
cm
rain 24hr
cm
rain mn
cm
humidity
%
barometer
mb
20260505065804 17 164 3.2 4.8 0.00 0.00 0.00 69 1005.1
20260505064804 18 108 3.2 4.8 0.00 0.00 0.00 67 1005.1
20260505064304 18 112 4.8 4.8 0.00 0.00 0.00 65 1005.1
20260505063805 18 57 3.2 11.3 0.00 0.00 0.00 63 1005.1
20260505063304 19 99 6.4 9.7 0.00 0.00 0.00 62 1004.7
20260505062804 20 124 4.8 8.0 0.00 0.00 0.00 60 1004.7
20260505062304 21 103 4.8 4.8 0.00 0.00 0.00 65 1004.4
20260505061805 21 298 3.2 8.0 0.00 0.00 0.00 62 1003.4
20260505061304 21 248 6.4 9.7 0.00 0.00 0.00 61 1003.4
20260505060304 21 207 6.4 9.7 0.00 0.00 0.00 61 1002.7
20260505055304 21 312 4.8 11.3 0.00 0.00 0.00 61 1002.7
20260505054804 21 311 9.7 16.1 0.00 0.00 0.00 60 1002.7
20260505053804 21 259 8.0 11.3 0.00 0.00 0.00 60 1002.7
20260505053304 22 298 8.0 14.5 0.00 0.00 0.00 60 1002.7
20260505052804 22 260 6.4 9.7 0.00 0.00 0.00 60 1002.4
20260505052305 22 289 6.4 11.3 0.00 0.00 0.00 60 1002.7
20260505051804 22 243 6.4 9.7 0.00 0.00 0.00 60 1002.7
20260505050935 22 214 11.3 16.1 0.00 0.00 0.00 59 1002.4
20260505050304 22 284 4.8 16.1 0.00 0.00 0.00 59 1002.0
20260505041304 22 128 6.4 12.9 0.00 0.00 0.00 58 1002.0
20260505040804 22 269 8.0 9.7 0.00 0.00 0.00 58 1002.0
20260505040304 22 225 8.0 9.7 0.00 0.00 0.00 59 1002.0
20260505035804 22 235 8.0 9.7 0.00 0.00 0.00 58 1002.4
20260505034804 22 296 4.8 11.3 0.00 0.00 0.00 58 1002.4
20260505034304 22 246 4.8 9.7 0.00 0.00 0.00 58 1002.4
20260505033804 22 235 6.4 8.0 0.00 0.00 0.00 58 1002.4
20260505033304 23 246 8.0 9.7 0.00 0.00 0.00 58 1002.4
20260505032803 23 246 8.0 11.3 0.00 0.00 0.00 58 1002.7
20260505032305 23 237 4.8 9.7 0.00 0.00 0.00 58 1002.4
20260505031804 23 239 8.0 9.7 0.00 0.00 0.00 57 1002.4
20260505031304 23 180 4.8 8.0 0.00 0.00 0.00 58 1002.4
20260505030804 23 265 3.2 8.0 0.00 0.00 0.00 58 1002.4
20260505030303 23 231 6.4 9.7 0.00 0.00 0.00 58 1002.4
20260505025804 23 245 4.8 4.8 0.00 0.00 0.00 58 1002.4
20260505025305 23 241 3.2 8.0 0.00 0.00 0.00 58 1002.4
20260505024304 23 251 4.8 4.8 0.00 0.00 0.00 58 1002.0
20260505023804 23 240 3.2 4.8 0.00 0.00 0.00 58 1002.0
20260505022804 23 215 3.2 8.0 0.00 0.00 0.00 58 1001.7
20260505022304 23 231 3.2 4.8 0.00 0.00 0.00 58 1001.7
20260505021804 23 250 3.2 8.0 0.00 0.00 0.00 58 1001.7
20260505021303 23 225 4.8 4.8 0.00 0.00 0.00 57 1001.7
20260505020804 23 235 3.2 4.8 0.00 0.00 0.00 57 1001.4
20260505020304 23 229 3.2 4.8 0.00 0.00 0.00 57 1001.4
20260505015804 23 236 4.8 4.8 0.00 0.00 0.00 57 1001.0
20260505015304 23 264 3.2 4.8 0.00 0.00 0.00 57 1001.0
20260505014804 23 256 4.8 4.8 0.00 0.00 0.00 56 1001.0
20260505014303 23 243 4.8 4.8 0.00 0.00 0.00 56 1001.0
20260505013303 24 213 4.8 8.0 0.00 0.00 0.00 55 1001.0
20260505012804 24 245 4.8 8.0 0.00 0.00 0.00 54 1000.7
20260505011803 24 230 4.8 4.8 0.00 0.00 0.00 54 1000.3
20260505010304 25 229 6.4 8.0 0.00 0.00 0.00 52 1000.7
20260505005304 25 288 4.8 8.0 0.00 0.00 0.00 51 1000.3
20260505003804 25 248 4.8 8.0 0.00 0.00 0.00 52 1000.3
20260505003306 25 287 6.4 9.7 0.00 0.00 0.00 51 1000.3
20260505002806 25 248 4.8 4.8 0.00 0.00 0.00 52 1000.3
20260505002305 25 233 4.8 4.8 0.00 0.00 0.00 53 1000.0
20260505001306 26 218 4.8 9.7 0.00 0.00 0.00 51 1000.0
20260505000806 26 233 4.8 4.8 0.00 0.00 0.00 51 1000.0
20260505000305 26 240 4.8 8.0 0.00 0.00 0.00 50 1000.0
20260504235805 26 279 4.8 8.0 0.00 0.00 0.00 50 1000.3
20260504235306 26 249 6.4 8.0 0.00 0.00 0.00 49 1000.3
20260504234806 26 275 4.8 8.0 0.00 0.00 0.00 49 1000.3
20260504233805 26 290 3.2 8.0 0.00 0.00 0.00 50 1000.7
20260504233306 26 285 4.8 9.7 0.00 0.00 0.00 49 1000.3
20260504232306 26 258 4.8 8.0 0.00 0.00 0.00 48 1000.7
20260504231806 27 246 6.4 9.7 0.00 0.00 0.00 47 1000.7
20260504231306 26 236 3.2 8.0 0.00 0.00 0.00 47 1000.7
20260504230806 27 229 6.4 9.7 0.00 0.00 0.00 47 1000.7
20260504230305 27 312 3.2 4.8 0.00 0.00 0.00 46 1000.7
20260504225805 27 264 4.8 8.0 0.00 0.00 0.00 46 1000.3
20260504224806 26 238 6.4 9.7 0.00 0.00 0.00 46 1000.3
20260504224306 26 45 4.8 8.0 0.00 0.00 0.00 46 1000.7
20260504223805 27 305 4.8 8.0 0.00 0.00 0.00 45 1000.7
20260504222806 27 224 8.0 14.5 0.00 0.00 0.00 46 1000.7
20260504222305 27 227 8.0 11.3 0.00 0.00 0.00 46 1000.7
20260504221805 27 264 11.3 14.5 0.00 0.00 0.00 45 1000.7
20260504221306 27 233 9.7 11.3 0.00 0.00 0.00 46 1000.7
20260504220305 27 224 4.8 16.1 0.00 0.00 0.00 49 1000.3
20260504215805 27 243 9.7 11.3 0.00 0.00 0.00 48 1000.7
20260504214806 27 228 4.8 11.3 0.00 0.00 0.00 49 1000.7
20260504214306 27 258 11.3 14.5 0.00 0.00 0.00 47 1000.7
20260504213805 27 244 11.3 12.9 0.00 0.00 0.00 47 1000.7
20260504213305 27 246 8.0 12.9 0.00 0.00 0.00 48 1000.7
20260504212805 27 316 4.8 9.7 0.00 0.00 0.00 49 1000.7
20260504212306 27 247 8.0 11.3 0.00 0.00 0.00 48 1000.7
20260504211805 27 293 9.7 12.9 0.00 0.00 0.00 48 1001.0
20260504211305 27 244 8.0 12.9 0.00 0.00 0.00 48 1001.0
20260504210806 27 245 6.4 9.7 0.00 0.00 0.00 48 1000.7
20260504210305 27 258 6.4 11.3 0.00 0.00 0.00 48 1000.7
20260504205305 26 292 8.0 12.9 0.00 0.00 0.00 49 1000.7
20260504204805 26 241 6.4 16.1 0.00 0.00 0.00 51 1000.7
20260504204306 26 227 8.0 14.5 0.00 0.00 0.00 51 1001.0
20260504203305 26 252 8.0 11.3 0.00 0.00 0.00 53 1001.4
20260504202805 26 269 6.4 12.9 0.00 0.00 0.00 53 1001.4
20260504202306 26 228 9.7 11.3 0.00 0.00 0.00 54 1001.4
20260504201305 25 249 6.4 14.5 0.00 0.00 0.00 54 1001.4
20260504200806 25 307 8.0 8.0 0.00 0.00 0.00 54 1001.7
20260504200305 25 113 3.2 9.7 0.00 0.00 0.00 56 1001.7
20260504195806 25 259 8.0 11.3 0.00 0.00 0.00 56 1001.7
20260504195305 25 289 8.0 9.7 0.00 0.00 0.00 57 1001.7
20260504194805 24 295 4.8 12.9 0.00 0.00 0.00 58 1002.4
20260504194306 23 237 9.7 12.9 0.00 0.00 0.00 57 1002.0
20260504193805 23 258 4.8 4.8 0.00 0.00 0.00 60 1001.7
20260504193305 23 237 4.8 8.0 0.00 0.00 0.00 62 1002.4
20260504192806 22 262 3.2 8.0 0.00 0.00 0.00 63 1002.4
20260504192305 22 313 3.2 8.0 0.00 0.00 0.00 63 1002.4
20260504191806 22 241 4.8 4.8 0.00 0.00 0.00 63 1002.4
20260504191305 22 254 3.2 4.8 0.00 0.00 0.00 64 1002.4
20260504190306 21 231 4.8 9.7 0.00 0.00 0.00 66 1002.4
20260504185805 20 241 4.8 8.0 0.00 0.00 0.00 67 1002.4
20260504185306 20 220 6.4 9.7 0.00 0.00 0.00 69 1002.0
20260504184805 19 168 6.4 9.7 0.00 0.00 0.00 69 1002.0
20260504184305 19 186 6.4 11.3 0.00 0.00 0.00 71 1002.0
20260504183805 19 195 4.8 9.7 0.00 0.00 0.00 70 1002.4
20260504183305 19 247 4.8 9.7 0.00 0.00 0.00 69 1003.0
20260504182305 20 181 8.0 9.7 0.00 0.00 0.00 64 1003.0
20260504181805 20 201 3.2 4.8 0.00 0.00 0.00 64 1003.7
20260504181305 20 178 3.2 8.0 0.00 0.00 0.00 64 1003.7
20260504180805 20 204 4.8 8.0 0.00 0.00 0.00 63 1003.7
20260504180305 20 250 4.8 8.0 0.00 0.00 0.00 63 1003.0
20260504175805 20 240 6.4 8.0 0.00 0.00 0.00 64 1003.4
20260504175305 20 233 4.8 9.7 0.00 0.00 0.00 64 1003.4
20260504174806 20 249 4.8 9.7 0.00 0.00 0.00 63 1003.4
20260504174305 20 244 3.2 3.2 0.00 0.00 0.00 63 1003.7
20260504173805 20 263 8.0 8.0 0.00 0.00 0.00 62 1003.4
20260504173305 20 172 4.8 9.7 0.00 0.00 0.00 62 1003.4
20260504172805 20 233 8.0 9.7 0.00 0.00 0.00 63 1003.7
20260504172305 20 232 3.2 4.8 0.00 0.00 0.00 63 1003.7
20260504171806 20 234 3.2 4.8 0.00 0.00 0.00 63 1004.1
20260504171305 20 206 4.8 4.8 0.00 0.00 0.00 65 1003.7
20260504170805 19 212 3.2 4.8 0.00 0.00 0.00 66 1004.1
20260504170305 19 252 4.8 8.0 0.00 0.00 0.00 67 1004.1
20260504160305 18 276 6.4 11.3 0.00 0.00 0.00 68 1004.7
20260504150805 18 225 8.0 11.3 0.00 0.00 0.00 66 1005.1
20260504141305 18 254 4.8 9.7 0.00 0.00 0.00 63 1005.8
20260504140805 18 226 4.8 8.0 0.00 0.00 0.00 63 1005.8
20260504140304 18 247 3.2 8.0 0.00 0.00 0.00 62 1005.8
20260504130305 18 226 4.8 8.0 0.00 0.00 0.00 65 1006.1
20260504120305 16 238 3.2 3.2 0.00 0.00 0.00 71 1007.1
20260504100304 16 238 3.2 3.2 0.00 0.00 0.00 67 1006.8
20260504081804 16 268 1.6 3.2 0.00 0.00 0.00 67 1006.8
20260504081304 16 268 3.2 3.2 0.00 0.00 0.00 65 1006.8
20260504080804 16 268 3.2 3.2 0.00 0.00 0.00 67 1006.8
20260504080304 16 268 3.2 3.2 0.00 0.00 0.00 70 1007.1
20260504070304 16 357 3.2 3.2 0.00 0.00 0.00 67 1006.8